Regional Weather Roundup
Issued by NWS Midland/Odessa, TX

Skip options and go directly to product.
Home | Oldest Version | Next Version | Current Version | All | Text Only | Save Text | Print | Product List | Glossary On

Skip product version selection by date and time.   
603
ASUS44 KMAF 020301
RWRMAF
MIDLAND AREA WEATHER ROUNDUP
NATIONAL WEATHER SERVICE MIDLAND TX
1000 PM CDT SAT AUG 01 2015

...IN SOUTHWEST TEXAS AND SOUTHEAST NEW MEXICO...

CITY           SKY/WX    TMP DP  RH WIND       PRES   REMARKS
ALPINE         PTCLDY    76  60  56 SE8       30.17R
ANDREWS        FAIR      82  63  53 SE10      30.05R
ARTESIA        PTCLDY    86  57  37 SW6       30.04R
BIG SPRING     PTCLDY    81  61  50 S5        30.05R
CARLSBAD       LGT RAIN  85  61  44 W8        29.99R
DRYDEN           N/A     86  64  47 VRB7      29.97R
FORT STOCKTON  LGT RAIN  85  60  42 SE10      30.02R
GUAD PASS      MOCLDY    78  52  40 NE14      30.18R
HOBBS          CLOUDY    79  63  57 CALM      30.08R
MARFA          PTCLDY    70  63  78 E7        30.15R
MIDLAND AIRPK  PTCLDY    85  59  41 SE9       30.02S
MIDLAND INTL   PTCLDY    82  63  52 SE9       30.02R
ODESSA         CLEAR     83  61  47 SE12      30.03R
PECOS          PTCLDY    86  62  44 SE12G20   29.97R
PRESIDIO       FAIR      89  58  35 NE6       29.96R
SEMINOLE       PTCLDY    83  61  46 NE6       30.08R
SNYDER         CLOUDY    85  66  51 SE7       30.02R
WINK           PTCLDY    87  60  40 SE15G28   29.98R
$$
...OTHER STATIONS IN TEXAS...

CITY           SKY/WX    TMP DP  RH WIND       PRES   REMARKS
ABILENE        CLOUDY    86  64  47 SE8       30.00R
AMARILLO       MOCLDY    74  69  85 SE14      30.07R
AUSTIN         PTCLDY    80  63  55 VRB5      29.92S
BROWNSVILLE    MOCLDY    79  74  84 S6        29.92R
CORPUS CHRISTI MOCLDY    82  73  74 SE8       29.90R
DALLAS FTW     PTCLDY    87  58  37 SE8       29.94R
DEL RIO        CLEAR     84  75  74 CALM      29.90R
EL PASO        PTCLDY    87  55  33 SE13      30.01R
HOUSTON INT    PTCLDY    80  64  58 SE6       29.91R
LUBBOCK        LGT RAIN  72  62  71 S17       30.05F
SAN ANGELO     CLEAR     87  60  40 E9        29.98R
SAN ANTONIO    PTCLDY    86  58  38 E7        29.94R
WACO           PTCLDY    85  60  42 E5        29.93S
WICHITA FALLS  NOT AVBL
$$
...OTHER LOCATIONS IN NEW MEXICO...

CITY           SKY/WX    TMP DP  RH WIND       PRES   REMARKS
ALAMAGORDO     PTCLDY    82  54  36 E6        30.06R
ALBUQUERQUE    LGT RAIN  68  61  78 W25G32    30.20R
CANNON AFB     CLEAR     76  62  63 S13       30.11R
CLOVIS         MOCLDY    73  61  64 S14       30.12R
HOLLOMAN AFB   PTCLDY    86  54  33 SE12      30.03R
ROSWELL        MOCLDY    86  58  38 E8        30.03R
RUIDOSO          N/A    N/A N/A N/A MISG        N/A
SANTA FE       LGT RAIN  68  55  63 NW6       30.23S
TRUTH OR CONSE CLOUDY    80  57  45 W12       30.10R
TUCUMCARI      CLOUDY    73  62  68 NW5       30.06R
$$

USA.gov is the U.S. government's official web portal to all federal, state and local government web resources and services.